Погода в Криничках

Украина / Днепропетровская область     48°22′24″N   34°27′23″E
темп.,
°C
ветер,
м/с
пор.,
м/с
влажн.,
%
обл.,
%
осадки,
мм/ч
давл.,
гПа
погр.,
м
5 августа, чт
чт500:00+21ююв225275 0.0 101722
03:00+21юв22523 0.0 101612
06:00+20юв3357100 0.0 101630
09:00+25ююв3444100 0.0 1016511
12:00+29ююв333430 0.0 10151452
15:00+30юв333061 0.0 10132193
18:00+30вюв333267 0.0 10122068
21:00+24вюв454560 0.0 101263
6 августа, пт
пт600:00+22вюв47495 0.0 1010105
03:00+20юв23542 0.0 101024
06:00+20юв1157100 0.0 100911
09:00+27вюв45435 0.0 1008363
12:00+32ююв45295 0.0 10071537
15:00+34ю56245 0.0 10061902
18:00+33ююз36323 0.0 10041774
21:00+24св47633 0.2 1004104
7 августа, сб
сб700:00+23ссв34735 0.4 100459
03:00+21ссв22753 0.4 100419
06:00+20св337828 0.0 100459
09:00+27св225421 0.0 1005314
12:00+32ссз554098 0.0 10051271
15:00+32ссз5637100 0.0 10061611
18:00+31сз7742100 0.0 1006829
21:00+24сз81464100 0.2 1009451
8 августа, вс
вс800:00+22ссз7137089 0.2 1010484
03:00+21ссз7137635 0.2 1010417
06:00+19с6138217 0.0 1011408
09:00+24с79665 0.0 1011568
12:00+29с67480 0.0 10111197
15:00+32с55390 0.0 10112058
18:00+32ссз563823 0.0 10111944
21:00+28ссз61144100 0.0 1013509
9 августа, пн
пн900:00+25с6114572 0.0 1014370
03:00+22с49550 0.0 1014187
06:00+20с49660 0.0 1014179
09:00+26ссв45530 0.0 1014419
12:00+31с32370 0.0 10141501
15:00+33сз33270 0.0 10142697
18:00+33ссз33270 0.0 10132460
21:00+26ссз5113617 0.0 1015206